Zurück zum Katalog

OV1-5

AktivMilitärLEO
NORAD 2122·PAYLOAD·🇺🇸 United States

Gestartet Mar 30, 1966 von Vandenberg Space Force Base

Loading…

Nächste Überflüge (nächste 24 Stunden)

TLE

AktuellSource: Space-Track

Epoche: Sep 14, 2026, 02:23 UTC

1 02122U 66025B   26257.09962518  .00000301  00000-0  52340-4 0  9990
2 02122 144.6358  13.7763 0047155 170.1604 189.9991 13.66178228 17231

Verfolge OV1-5 in Echtzeit mit AllMySat

Download on the App Store